This is the latest recevied weather packets stored in our database for station/object EA1IDU-11. If no packets are shown the sender has not sent any weather packets the latest 10 day(s).
| Time | Temp. | Humidity | Pressure | Rain* | Wind** | Luminosity | Snow |
|---|---|---|---|---|---|---|---|
| 1777686155 | 16.11° C | 45% | 1026.2 hPa | - | - | - | - |
| 1777685255 | 16.67° C | 45% | 1026.4 hPa | - | - | - | - |
| 1777684355 | 16.67° C | 45% | 1026.4 hPa | - | - | - | - |
| 1777683455 | 17.22° C | 45% | 1026.5 hPa | - | - | - | - |
| 1777682555 | 17.78° C | 45% | 1026.5 hPa | - | - | - | - |
| 1777681655 | 17.78° C | 45% | 1026.8 hPa | - | - | - | - |
| 1777680755 | 17.78° C | 45% | 1026.6 hPa | - | - | - | - |
| 1777679854 | 17.78° C | 45% | 1026.7 hPa | - | - | - | - |
| 1777678954 | 18.33° C | 44% | 1026.8 hPa | - | - | - | - |
| 1777678054 | 17.78° C | 45% | 1026.8 hPa | - | - | - | - |
| 1777677154 | 18.33° C | 44% | 1026.8 hPa | - | - | - | - |
| 1777676254 | 18.33° C | 44% | 1026.9 hPa | - | - | - | - |
| 1777675354 | 18.33° C | 44% | 1026.9 hPa | - | - | - | - |
| 1777674455 | 18.33° C | 44% | 1026.9 hPa | - | - | - | - |
| 1777673554 | 18.33° C | 43% | 1026.9 hPa | - | - | - | - |
| 1777672654 | 18.89° C | 44% | 1027 hPa | - | - | - | - |
| 1777671754 | 18.89° C | 43% | 1027.1 hPa | - | - | - | - |
| 1777670853 | 18.89° C | 43% | 1027.3 hPa | - | - | - | - |
| 1777669953 | 18.89° C | 44% | 1027.4 hPa | - | - | - | - |
| 1777669053 | 18.89° C | 44% | 1027.2 hPa | - | - | - | - |
| 1777668153 | 18.89° C | 44% | 1027.4 hPa | - | - | - | - |
| 1777667253 | 18.89° C | 45% | 1027.3 hPa | - | - | - | - |
| 1777666353 | 19.44° C | 44% | 1027.2 hPa | - | - | - | - |
| 1777665453 | 19.44° C | 43% | 1027 hPa | - | - | - | - |
| 1777664553 | 20° C | 41% | 1027 hPa | - | - | - | - |
* Rain since midnight (hover to see other rain measurements)
** Current wind speed in m/s (hover to see current wind gust speed)